User: anonymous   Login
Location: Veytaux
(46.4185°N, 6.9320°E)
Time: 10:13:19
(UTC+00:00)
Language:

CZ-2D R/B - Orbit

View from above orbital plane
View from above orbital plane
View from above satellite
View from above satellite

Ground track
Ground track

The orbit data is extracted from the following two-line orbital elements,

1 37932U 11068C   22227.77396337  .00000054  00000-0  44215-4 0  9999
2 37932  98.7237 163.6842 0036807 343.9119  40.9098 14.22151166557237
Epoch (UTC): 15 August 2022 18:34:30
Eccentricity: 0.0036807
inclination: 98.7237°
perigee height: 791 km
apogee height: 844 km
right ascension of ascending node: 163.6842°
argument of perigee: 343.9119°
revolutions per day: 14.22151166
mean anomaly at epoch: 40.9098°
orbit number at epoch: 55723

The dashed part of the orbit path shows where the satellite is in the earth's shadow,  

DLR